Regional Weather Roundup
Issued by NWS

Home | Current Version | Previous Version | Graphics & Text | Print | Product List | Glossary On
Versions: 1 2 3 4 5 6 7 8 9 10 11 12 13 14 15 16 17 18 19 20 21 22 23 24 25 26 27 28 29 30 31 32 33 34 35 36 37 38 39 40 41 42 43 44 45 46 47 48 49 50
000
ASUS43 KLOT 201000
RWRIL

ILLINOIS REGIONAL WEATHER ROUNDUP
NATIONAL WEATHER SERVICE CHICAGO/ROMEOVILLE IL
500 AM CDT SAT SEP 20 2014

NOTE: "FAIR" INDICATES FEW OR NO CLOUDS BELOW 12,000 FEET WITH NO
SIGNIFICANT WEATHER AND/OR OBSTRUCTIONS TO VISIBILITY.

* THESE STATIONS ARE NOT UNDER NWS QUALITY CONTROL. THEY ALSO MAY NOT
  REPORT WEATHER SUCH AS PRECIPITATION OR FOG.

ILZ001-002-007-009-015-016-024-201100-
NORTHWEST ILLINOIS

CITY           SKY/WX    TMP DP  RH WIND       PRES   REMARKS
MOLINE         CLOUDY    65  59  81 NW3       29.92R
STERLING*      CLOUDY    63  55  77 W6        29.93R
$$

ILZ003-004-008-010-011-017-018-201100-
NORTH CENTRAL ILLINOIS

CITY           SKY/WX    TMP DP  RH WIND       PRES   REMARKS
ROCKFORD       CLOUDY    63  56  78 S3        29.95R
FREEPORT*      LGT RAIN  60  58  91 N7        29.96R
ROCHELLE*      CLOUDY    59  55  86 S6        29.92R
$$

ILZ005-006-012>014-019>023-201100-
NORTHEAST ILLINOIS

CITY           SKY/WX    TMP DP  RH WIND       PRES   REMARKS
CHICAGO-OHARE  CLOUDY    64  52  64 SW12      29.92R
CHICAGO-MIDWAY CLOUDY    64  53  67 SW14      29.94R
AURORA         CLOUDY    56  51  84 S5        29.94R
LANSING*       MOCLDY    59  53  80 S10       29.96R
WAUKEGAN       CLOUDY    64  54  69 SW16G22   29.88S
DUPAGE AIRPORT CLOUDY    60  53  77 S12       29.92S
WHEELING       CLOUDY    66  53  63 SW14G21   29.92S
NORTHERLY ISL    N/A     64  52  64 S8          N/A
$$

LMZ740>746-201100-
SOUTHERN LAKE MICHIGAN

STATION/POSITION SKY/WX   TEMP    WIND        PRES    VSBY  WAVE
                          AIR SEA DIR/SP/G                  HT/PER
                          (F)     (DEG/KT/KT) (MB)    (MI)  (FT/S)
SOUTHERN BUOY              65 64  200/ 21/ 25 1011.6R         4/ 5
WAUKEGAN HARBOR            65     230/ 14/ 18   N/A
HARRISON CRIB              64     200/ 22/ 29   N/A
BURNHAM HARBOR             64     210/  8/ 15   N/A
CALUMET HARBOR             63     200/ 12/ 15 1012.4R
MICHIGAN CITY              63     160/ 16/ 21   N/A
MICHIGAN CITY 6N           65 65  200/ 16/ 21   N/A           3/ 3
ST. JOSEPH                 65 65  180/ 17/ 21   N/A           4/ 4
$$

ILZ025>027-034>036-040-047-049-050-058-095>099-201100-
WEST-CENTRAL ILLINOIS

CITY           SKY/WX    TMP DP  RH WIND       PRES   REMARKS
QUINCY         PTCLDY    62  59  90 S8        29.94S
GALESBURG*     MOCLDY    60  58  93 S6        29.93S
$$

ILZ028>032-037-038-041>044-048-051>054-059>061-201100-
CENTRAL ILLINOIS

CITY           SKY/WX    TMP DP  RH WIND       PRES   REMARKS
DECATUR        PTCLDY    59  54  83 S6        30.00R
PEORIA         MOCLDY    60  55  83 S6        29.95F
SPRINGFIELD    PTCLDY    64  58  80 S12       29.98R
TAYLORVILLE    NOT AVBL
$$

ILZ033-039-045-046-055>057-062-063-201100-
EAST-CENTRAL ILLINOIS

CITY           SKY/WX    TMP DP  RH WIND       PRES   REMARKS
CHAMPAIGN      PTCLDY    58  54  86 S8        30.00S
MATTOON        CLEAR     59  54  83 S8        30.00F
$$

ILZ079-100>102-201100-
SOUTHWEST ILLINOIS

CITY           SKY/WX    TMP DP  RH WIND       PRES   REMARKS
BELLEVILLE     CLEAR     56  55  99 E2        30.00S
CAHOKIA*       CLEAR     58  57  97 CALM      30.00S FOG
SPARTA*        MOCLDY    56  55  94 S3        30.02S
$$

ILZ064>066-069>071-074>076-080>082-084>086-088>090-092>094-201100-
SOUTH-CENTRAL ILLINOIS

CITY           SKY/WX    TMP DP  RH WIND       PRES   REMARKS
CARBONDALE     FOG       55  54  96 CALM      30.03R VSB 1/2
MT. VERNON     CLEAR     52  48  87 CALM      30.03S
$$

ILZ067-068-072-073-078-083-087-091-201100-
SOUTHEAST ILLINOIS

CITY           SKY/WX    TMP DP  RH WIND       PRES   REMARKS
LAWRENCEVILLE  CLEAR     53  52  96 CALM      30.03S FOG
ROBINSON*      CLEAR     51  51  99 CALM      30.04R FOG
$$

ABBREVIATIONS USED IN REMARKS
   TC - TEMPERATURE IN CELSIUS
  WCI - WIND CHILL INDEX
   HX - HEAT INDEX
  VSB - VISIBILITY
$$



USA.gov is the U.S. government's official web portal to all federal, state and local government web resources and services.